Regional Weather Roundup
Issued by NWS

Home | Current Version | Previous Version | Text Only | Print | Product List | Glossary Off
Versions: 1 2 3 4 5 6 7 8 9 10 11 12 13 14 15 16 17 18 19 20 21 22 23 24 25 26 27 28 29 30 31 32 33 34 35 36 37 38 39 40 41 42 43 44 45 46 47 48 49 50

000
ASUS43 KFSD 200810
RWRSD

WEATHER ROUNDUP FOR SOUTH DAKOTA
NATIONAL WEATHER SERVICE SIOUX FALLS SD
300 AM CDT SAT SEP 20 2014

NOTE: "FAIR" INDICATES FEW OR NO CLOUDS BELOW 12,000 FEET WITH NO
SIGNIFICANT WEATHER AND/OR OBSTRUCTIONS TO VISIBILITY.


SDZ001>005-009-010-012>017-200900-
NORTHWEST AND NORTH CENTRAL SOUTH DAKOTA

CITY           SKY/WX    TMP DP  RH WIND       PRES   REMARKS
BUFFALO          N/A     54  46  74 W10       29.91R
FAITH            N/A     58  48  69 W13       29.93R
MOBRIDGE       CLEAR     57  54  89 NW7       29.84S
$$

SDZ012>016-024>037-041>051-057-063-072>074-200900-
SOUTHWEST AND SOUTH CENTRAL SOUTH DAKOTA

CITY           SKY/WX    TMP DP  RH WIND       PRES   REMARKS
RAPID CTY ARPT MOCLDY    65  47  52 NW13      30.01R
PIERRE         PTCLDY    60  55  83 W8        29.87R
CUSTER         MOCLDY    60  40  47 NW6       30.13R
ELLSWORTH AFB  MOCLDY    63  48  59 VRB6      29.98
PHILIP         MOCLDY    60  55  83 W7        29.93S
PINE RIDGE     PTCLDY    52  49  89 CALM      30.02R
WINNER         FAIR      63  56  78 W8        29.91R
$$

SDZ004>011-016>023-039-040-200900-
NORTHEAST SOUTH DAKOTA

CITY           SKY/WX    TMP DP  RH WIND       PRES   REMARKS
ABERDEEN       CLEAR     58  53  84 NW6       29.81R
WATERTOWN      PTCLDY    61  54  77 NW7       29.79R
SISSETON         N/A     61  57  87 N9        29.75R
$$

SDZ017-020-022-023-036>040-048>070-200900-
SOUTHEAST SOUTH DAKOTA

CITY           SKY/WX    TMP DP  RH WIND       PRES   REMARKS
SIOUX FALLS    PTCLDY    67  58  72 W7        29.80R
HURON          MOCLDY    64  52  64 NW9       29.81R
CHAMBERLAIN    MOCLDY    64  53  66 W6        29.87S
MITCHELL       MOCLDY    66  54  65 NW7       29.83R
YANKTON        CLOUDY    70  63  78 W8        29.80R
$$

ABBREVIATIONS USED IN REMARKS
   TC - TEMPERATURE IN CELSIUS
  WCI - WIND CHILL INDEX
   HX - HEAT INDEX
  VSB - VISIBILITY




USA.gov is the U.S. government's official web portal to all federal, state and local government web resources and services.